Main page
METAR-TAF:

METAR-TAF

Airports :

Iranshahr, Iran

latitude: 27-12N, longitude: 060-42E, elevation: 591 m

Current weather observation

The report was made 46 minutes ago, at 13:00 UTC
Wind 8 kt from the West
Temperature 24°C
Humidity 13%
Pressure 1017 hPa
Visibility 10 km or more
Few clouds at a height of 4000 ft

METAR: OIZI 131300Z 28008KT 9999 FEW040 24/M06 Q1017

Time: 17:16 (13:46 UTC)


TAF: missing

Weather observations and forecasts of more than 4000 airports (METAR and TAF reports).

The available stations are represented by yellow and red dots on the map.

Hover mouse over dot to see the name of the station.

Then click to see weather observations and forecasts.

To change the map : click on the green buttons with a black cross to zoom in, on the green button with a dash to zoom out, or on the green arrows for adjacent maps.


METAR-TAF: